Content
SEND FEEDBACK

Daily
Averages
Monthly
Summary
Algeria

BLIDA, ALGERIA


Home > Africa > Algeria
Elevation: 535 feet     Latitude: 36 30N     Longitude: 002 49E

WEATHER
 
SELECT A DAY
Number of Records: 529,375;   Date Range: 1/10/97 - 7/8/14
 
SHARE

PRINT THIS DATA

[ ← Previous Day ]
WEATHER ALMANAC - JANUARY 31, 2013
[ Next Day → ]
[ °C ]   °F
Weather ElementAverageHighLow
Temperature50.7 °F68 °F (1:00 pm)35.6 °F (7:00 am)
Dewpoint44.4 °F53.6 °F (3:30 pm)33.8 °F (7:00 am)
Humidity80.9 %100 % (12:30 am)33 % (1:00 pm)
Barometer30.44 in30.49 in (10:00 am)30.42 in (12:30 am)
Wind Speed2.2 mph6.9 mph (2:30 pm)
Weather ElementAverage
Visibility9.8 mi
Wind DirectionESE (99.2 °)

Weather ElementTotal
Precipitation---
Heating Degree Days13.2 (Base 65)
Growing Degree Days1.8 (Base 50)
Averaged from 54 records on January 31, 2013
WEATHER CONDITIONS BREAKOUT
WIND DIRECTION BREAKOUT
WEATHER BY HOUR - JANUARY 31, 2013
[ °C ]   °F
Local TimeTemperatureDewpointHumidityBarometerVisibilityWind DirectionWind SpeedGust SpeedPrecipitationEventsConditions
12:30 AM41.0 °F41.0 °F100 %30.42 inCalmClear
1:00 AM42.0 °F40.0 °F91 %30.43 in12.0 miSSE (150°)2.3 mphClear
1:00 AM41.0 °F41.0 °F100 %30.42 inSSE (150°)2.3 mphClear
1:30 AM41.0 °F39.2 °F93 %30.42 inCalmClear
2:00 AM41.0 °F39.2 °F93 %30.42 inCalmClear
2:30 AM41.0 °F39.2 °F93 %30.42 inCalmClear
3:00 AM39.2 °F37.4 °F93 %30.45 inCalmClear
3:30 AM41.0 °F39.2 °F93 %30.45 inSSE (160°)4.6 mphClear
4:00 AM39.0 °F38.0 °F95 %30.46 in12.0 mi°2.3 mphClear
4:00 AM39.2 °F37.4 °F93 %30.45 inVariable2.3 mphClear
4:30 AM39.2 °F37.4 °F93 %30.45 inSSE (150°)1.2 mphClear
5:00 AM39.2 °F37.4 °F93 %30.45 inSouth (180°)1.2 mphClear
5:30 AM37.4 °F35.6 °F93 %30.42 inWest (280°)1.2 mphClear
6:00 AM37.4 °F35.6 °F93 %30.42 inWest (260°)3.5 mphClear
6:30 AM39.2 °F37.4 °F93 %30.42 inCalmClear
7:00 AM36.0 °F35.0 °F92 %30.45 in12.0 miCalm
7:00 AM35.6 °F33.8 °F93 %30.45 inCalmClear
7:30 AM37.4 °F35.6 °F93 %30.45 inVariable2.3 mphClear
8:00 AM37.4 °F35.6 °F93 %30.45 inSouth (170°)2.3 mphClear
8:30 AM39.2 °F37.4 °F93 %30.45 inCalmClear
9:00 AM42.8 °F42.8 °F100 %30.48 inSouth (170°)3.5 mphClear
9:30 AM48.2 °F44.6 °F87 %30.48 inCalmClear
10:00 AM51.0 °F47.0 °F80 %30.49 in9.0 miSW (220°)2.3 mphClear
10:00 AM51.8 °F46.4 °F82 %30.48 inVariable2.3 mphClear
10:30 AM55.4 °F48.2 °F77 %30.48 in5.6 miWest (270°)2.3 mph
11:00 AM57.2 °F48.2 °F72 %30.48 in5.6 miCalm
11:30 AM62.6 °F50.0 °F63 %30.48 inVariable2.3 mphClear
12:00 PM64.4 °F50.0 °F59 %30.48 inVariable1.2 mphClear
12:30 PM66.2 °F48.2 °F52 %30.48 inVariable2.3 mphClear
1:00 PM68.0 °F45.0 °F33 %30.48 in12.0 miNNW (340°)1.2 mphClear
1:00 PM68.0 °F44.6 °F43 %30.45 inVariable1.2 mphClear
1:30 PM68.0 °F48.2 °F49 %30.45 inVariable1.2 mphClear
2:00 PM68.0 °F44.6 °F43 %30.45 inENE (60°)4.6 mphClear
2:30 PM68.0 °F51.8 °F56 %30.42 inNorth (360°)6.9 mphClear
3:00 PM66.2 °F51.8 °F60 %30.42 inNNW (340°)6.9 mphClear
3:30 PM66.2 °F53.6 °F64 %30.42 inNorth (360°)5.8 mphClear
4:00 PM67.0 °F52.0 °F49 %30.43 in12.0 miNorth (10°)3.5 mphClear
4:00 PM66.2 °F51.8 °F60 %30.42 inNorth (10°)3.5 mphClear
4:30 PM66.2 °F51.8 °F60 %30.42 inNorth (10°)4.6 mphClear
5:00 PM64.4 °F51.8 °F64 %30.42 inNorth (350°)5.8 mphClear
5:30 PM62.6 °F51.8 °F68 %30.42 inNorth (10°)4.6 mphClear
6:00 PM59.0 °F50.0 °F72 %30.42 inNorth (10°)4.6 mphClear
6:30 PM57.2 °F50.0 °F77 %30.42 inNNE (20°)3.5 mphClear
7:00 PM55.0 °F50.0 °F78 %30.43 in12.0 miNNE (30°)3.5 mphClear
7:00 PM55.4 °F50.0 °F82 %30.42 inNNE (30°)3.5 mphClear
8:00 PM51.8 °F50.0 °F94 %30.42 inSSE (160°)2.3 mphClear
8:30 PM50.0 °F48.2 °F94 %30.42 inSouth (170°)2.3 mphClear
9:00 PM48.2 °F46.4 °F93 %30.42 inCalmClear
9:30 PM48.2 °F48.2 °F100 %30.42 inWNW (300°)2.3 mphClear
10:00 PM48.0 °F47.0 °F96 %30.44 in6.0 miCalm
10:00 PM48.2 °F46.4 °F93 %30.42 inCalmClear
10:30 PM46.4 °F44.6 °F93 %30.42 inCalmClear
11:00 PM44.6 °F44.6 °F100 %30.42 inSSE (160°)2.3 mphClear
11:30 PM44.6 °F44.6 °F100 %30.42 inSouth (170°)3.5 mphClear
Hourly data recorded from DAAG, located miles away from Blida, Algeria







STORIES FROM OUR PARTNERS